Tracking 19827 objects as of 21-Aug-2019
HD Live streaming from Space Station
objects crossing your sky now

SL-24 DEB

Track SL-24 DEB now!
10-day predictions


NORAD ID: 36601
Int'l Code: 2010-028D
Perigee: 724.9 km
Apogee: 751.0 km
Inclination: 98.4 °
Period: 99.4 minutes
Semi major axis: 7108 km
RCS: 5.771 m2 (large)
Launch date: June 15, 2010
Source: Commonwealth of Independent States (former USSR) (CIS)
Launch site: Orenburg, Russia (OREN)

Note: This is SATELLITE DEBRIS
aabbcc
Your satellite tracking list
Your tracking list is empty




NASA's NSSDC Master Catalog

Two Line Element Set (TLE):
1 36601U 10028D   19232.48806781  .00000032  00000-0  20341-4 0  9995
2 36601  98.3907  57.0021 0018358  70.3528 289.9644 14.48421344485003
Source of the keplerian elements: AFSPC